This is the latest recevied weather packets stored in our database for station/object S59DKS-10. If no packets are shown the sender has not sent any weather packets the latest 10 day(s).
| Time | Temp. | Humidity | Pressure | Rain* | Wind** | Luminosity | Snow |
|---|---|---|---|---|---|---|---|
| 1777587618 | 8.33° C | 35% | 1027.4 hPa | - | - | - | - |
| 1777586720 | 8.33° C | 35% | 1027.6 hPa | - | - | - | - |
| 1777585820 | 8.33° C | 35% | 1027.7 hPa | - | - | - | - |
| 1777584960 | 8.33° C | 35% | 1027.6 hPa | - | - | - | - |
| 1777584922 | 8.33° C | 35% | 1027.6 hPa | - | - | - | - |
| 1777584023 | 8.33° C | 35% | 1027.6 hPa | - | - | - | - |
| 1777583161 | 8.89° C | 34% | 1027.4 hPa | - | - | - | - |
| 1777583123 | 8.89° C | 34% | 1027.4 hPa | - | - | - | - |
| 1777582224 | 8.89° C | 34% | 1027.3 hPa | - | - | - | - |
| 1777581325 | 9.44° C | 34% | 1027.1 hPa | - | - | - | - |
| 1777580426 | 9.44° C | 34% | 1026.7 hPa | - | - | - | - |
| 1777579527 | 9.44° C | 34% | 1026.6 hPa | - | - | - | - |
| 1777578628 | 9.44° C | 34% | 1026 hPa | - | - | - | - |
| 1777577729 | 10° C | 34% | 1026 hPa | - | - | - | - |
| 1777576830 | 9.44° C | 34% | 1025.9 hPa | - | - | - | - |
| 1777575932 | 10° C | 33% | 1025.9 hPa | - | - | - | - |
| 1777575033 | 10.56° C | 33% | 1025.7 hPa | - | - | - | - |
| 1777574130 | 10.56° C | 32% | 1025.4 hPa | - | - | - | - |
| 1777573229 | 10.56° C | 33% | 1025.4 hPa | - | - | - | - |
| 1777572329 | 11.11° C | 32% | 1025.2 hPa | - | - | - | - |
| 1777571431 | 11.67° C | 31% | 1025.1 hPa | - | - | - | - |
| 1777570532 | 11.67° C | 31% | 1025.1 hPa | - | - | - | - |
| 1777569633 | 12.22° C | 30% | 1024.8 hPa | - | - | - | - |
| 1777568735 | 12.22° C | 29% | 1024.8 hPa | - | - | - | - |
| 1777567836 | 12.78° C | 29% | 1024.9 hPa | - | - | - | - |
* Rain since midnight (hover to see other rain measurements)
** Current wind speed in m/s (hover to see current wind gust speed)